Wind_Speed
5 5 6 6 6 6 6 6 7 7 8 9 9 10 10 10 10 10 11 11 11 11 12 11 11 12 11 11 11 10 10 9 9 8 7 7 7 6 5 5 4 3 2
5 5 6 6 6 6 6 7 8 8 9 10 10 10 10 10 10 10 10 11 11 12 12 12 12 12 12 12 12 11 11 11 10 10 9 8 7 7 6 5 5 4 3
5 6 6 6 6 6 7 8 8 9 9 9 10 10 10 10 10 11 11 11 11 12 13 13 14 13 13 13 13 13 13 13 12 11 10 9 9 8 7 6 5 4 3
5 6 6 6 6 7 8 8 9 9 9 9 9 9 10 10 10 11 12 12 12 12 13 13 14 14 14 14 14 14 14 14 14 12 11 10 10 9 9 8 6 5 4
6 7 7 6 7 8 8 8 8 9 9 9 9 9 10 11 11 12 12 12 12 13 13 13 13 14 14 14 13 14 14 15 15 14 12 11 11 10 10 9 7 6 5
6 6 7 6 7 7 8 8 8 9 9 9 10 10 11 12 12 12 13 13 13 13 13 13 13 13 13 13 14 14 14 14 15 14 14 13 12 11 11 10 8 7 6
6 6 7 7 7 8 8 8 8 9 10 10 10 11 12 12 13 13 13 13 13 13 13 13 13 12 13 13 13 14 15 14 15 15 14 14 14 13 12 11 10 9 7
6 7 7 7 7 8 8 9 9 10 11 11 11 12 13 13 14 14 14 14 13 13 13 13 13 12 12 13 13 13 14 15 15 15 15 14 15 14 13 12 11 10 9
6 6 7 7 7 8 8 9 9 10 11 11 12 12 13 14 14 14 14 14 14 13 13 13 13 13 13 13 13 13 14 15 16 15 15 15 16 15 14 13 12 11 10
6 7 7 7 7 8 9 9 9 11 11 12 12 13 14 14 14 14 14 14 14 14 14 14 13 13 13 13 13 13 14 15 16 16 15 16 17 16 15 14 13 13 12
7 7 7 7 8 8 9 9 10 11 12 12 13 14 14 14 14 14 14 14 14 14 14 14 14 14 13 13 14 14 14 14 15 16 15 17 17 17 16 15 14 14 13
7 7 8 8 9 9 10 10 11 12 12 13 13 14 14 15 15 15 15 14 14 14 14 15 15 14 14 14 14 14 14 15 15 15 16 17 17 18 17 16 16 15 14
7 8 8 9 9 9 10 11 12 12 13 14 14 15 15 15 15 15 15 15 14 15 15 15 15 15 14 14 14 14 14 15 15 15 16 17 17 18 18 17 17 17 16
8 8 9 9 9 10 10 11 12 13 14 14 15 15 15 15 15 15 15 15 15 15 16 16 15 15 14 14 14 14 15 15 15 16 16 17 17 18 18 19 18 18 17
8 8 8 9 9 9 10 11 12 13 14 14 15 15 15 15 15 16 16 16 16 16 16 16 15 15 14 14 13 13 14 14 15 16 16 17 17 18 19 19 19 18 18
7 8 8 9 9 9 10 11 12 13 14 14 14 15 15 15 16 16 16 16 16 16 16 15 15 15 14 13 13 13 13 14 15 15 15 17 18 18 19 20 19 19 18
7 8 9 9 9 10 10 11 12 13 14 14 14 15 15 15 16 17 17 17 16 16 16 15 15 14 13 13 12 12 12 13 14 15 15 16 17 18 19 20 20 19 19
8 8 9 9 9 10 10 11 12 12 13 14 15 15 15 16 17 17 17 17 17 17 16 15 14 14 13 12 11 11 11 13 14 14 15 16 17 19 19 20 21 21 19
7 8 8 8 8 9 10 11 11 12 13 14 15 16 16 17 18 18 18 18 17 17 16 15 14 13 13 12 11 10 10 11 13 14 15 16 18 19 20 20 21 21 21
7 7 7 8 8 9 10 10 11 12 12 13 15 16 17 17 18 18 18 18 18 17 16 15 14 13 12 11 11 10 10 11 12 13 15 15 17 19 19 20 21 21 21
6 6 7 7 8 9 10 10 10 11 12 14 15 16 17 18 18 18 18 18 18 18 16 16 15 13 12 12 11 10 10 10 12 12 14 16 16 17 19 19 20 22 21
6 6 7 7 8 9 9 10 10 11 12 14 15 16 17 18 18 18 19 19 19 18 17 16 15 13 13 11 10 9 9 10 11 11 13 15 16 17 18 19 21 21 21
6 6 6 7 8 9 10 10 10 11 13 14 15 16 17 18 18 19 19 19 19 18 17 16 15 14 13 11 10 9 9 9 10 11 12 14 16 17 18 18 19 21 21
6 6 6 7 8 9 9 10 11 12 13 14 15 16 17 18 18 19 19 19 19 18 17 16 16 14 13 12 10 9 9 9 9 10 12 14 15 16 17 18 19 20 21
6 6 6 7 9 10 10 11 12 12 13 14 15 16 17 18 18 19 19 19 19 18 17 17 16 15 13 12 10 9 9 9 9 9 11 13 15 16 16 18 19 20 20
5 6 6 7 9 10 11 11 12 13 14 14 15 16 17 18 18 19 19 19 19 18 17 17 17 15 14 12 11 10 9 9 8 9 10 12 14 16 16 18 19 20 20
Wind_Direction
296 304 309 310 312 316 320 325 328 328 330 329 326 322 319 315 310 305 299 293 288 286 282 280 282 278 269 267 266 264 260 256 252 250 248 243 240 242 243 246 245 253 272
295 301 307 310 313 315 319 323 325 324 324 324 322 320 319 316 313 310 305 297 291 288 284 281 281 280 274 270 268 264 258 254 250 247 246 243 240 240 239 240 241 243 256
293 299 303 307 310 315 317 320 321 321 323 323 323 322 321 319 317 314 311 305 298 292 288 285 282 280 275 272 268 263 258 253 250 247 245 244 241 240 237 235 238 239 244
293 298 300 305 311 314 316 319 322 323 325 326 327 326 326 325 323 321 316 312 306 299 294 289 284 280 276 275 270 263 257 253 248 245 243 242 240 240 236 232 233 233 232
296 300 307 308 311 315 319 325 329 330 329 328 328 328 328 327 325 322 318 315 311 305 299 295 288 282 277 274 269 265 258 254 247 243 240 240 240 239 236 229 228 228 225
297 302 306 309 315 321 324 327 329 331 330 329 329 329 328 326 323 321 318 317 313 310 305 300 295 288 281 275 269 264 259 254 247 243 239 238 239 235 232 227 223 223 221
298 309 316 318 321 326 328 328 329 330 330 329 328 327 325 323 321 318 315 314 313 311 308 303 297 290 285 276 269 263 258 255 250 243 240 237 236 235 231 226 221 219 216
309 316 319 322 323 327 329 330 331 333 331 329 326 325 323 322 321 318 315 313 311 310 309 306 300 293 287 278 272 264 259 256 253 245 239 236 232 232 229 226 221 217 212
315 318 320 321 323 327 329 329 331 333 331 329 327 325 324 323 322 320 317 313 311 309 308 306 303 297 289 281 273 264 262 260 253 248 238 234 232 230 227 224 221 218 211
316 316 320 319 320 323 326 329 331 333 332 329 327 326 325 325 324 322 319 316 313 310 307 306 304 300 291 281 274 266 262 260 252 248 239 233 231 227 224 222 221 219 212
314 317 320 322 323 324 327 330 332 333 332 331 328 327 327 326 325 324 321 318 315 311 308 305 303 298 292 284 276 267 263 258 252 246 239 233 229 225 223 221 221 217 212
313 317 321 323 326 327 328 331 333 332 331 330 329 329 328 327 327 327 324 321 318 314 310 307 303 298 292 285 278 269 263 256 251 246 240 232 229 225 222 220 220 216 213
312 315 321 322 325 327 328 331 332 332 332 331 331 329 328 328 328 327 325 322 320 316 312 308 305 300 295 287 279 271 264 256 251 248 241 233 230 226 222 221 219 216 214
310 313 319 324 326 327 327 331 333 333 334 333 332 331 330 330 329 327 326 322 319 317 314 310 305 301 296 291 282 274 265 256 251 246 240 234 230 227 223 221 220 219 215
306 312 317 322 325 326 328 332 333 334 336 336 335 335 334 333 331 329 328 325 322 318 317 314 309 304 297 291 285 275 263 255 250 244 239 233 230 227 223 220 220 220 218
306 308 312 318 319 321 327 332 333 335 337 339 340 340 339 337 335 333 332 328 325 322 319 316 312 306 300 293 286 275 263 255 249 243 236 233 230 228 223 220 219 219 219
315 313 313 315 316 320 327 332 334 337 339 342 344 344 343 341 339 337 336 334 330 326 322 319 314 311 305 297 287 276 263 255 249 244 236 234 230 226 223 220 220 221 221
311 314 314 316 318 322 327 332 335 339 341 344 347 347 345 343 342 341 339 337 334 330 327 323 317 314 311 301 290 277 264 254 247 242 236 233 230 227 225 222 222 222 222
310 312 313 314 320 325 328 333 336 339 342 346 348 348 345 344 344 344 342 340 338 335 332 328 321 317 315 306 292 282 269 255 245 240 236 231 229 228 226 225 224 224 223
309 311 313 314 320 327 330 333 336 339 342 345 348 349 347 346 345 345 344 342 341 339 335 333 327 322 317 309 296 285 275 259 244 240 235 232 228 226 226 227 226 225 225
316 321 320 322 325 328 331 334 337 340 344 345 347 349 349 347 347 346 345 344 341 340 337 335 331 326 322 313 301 290 278 264 248 242 237 232 228 226 227 228 226 225 227
321 327 324 329 332 333 331 331 334 338 342 345 347 348 348 348 348 348 346 344 342 340 339 337 334 328 326 320 310 296 283 265 253 246 239 233 231 227 227 229 227 226 227
323 326 325 328 330 330 330 331 334 336 339 342 344 345 346 346 346 347 346 345 343 341 339 337 335 330 327 323 314 301 288 271 256 250 243 234 231 230 229 229 228 227 226
317 321 325 328 330 333 332 331 332 334 336 338 340 342 343 344 344 345 346 345 344 343 340 338 336 331 329 324 316 307 294 278 260 254 246 237 231 230 231 231 231 228 228
316 318 325 331 332 337 337 335 333 332 333 335 336 338 340 342 343 344 345 345 344 343 341 338 337 333 329 324 318 309 297 284 269 260 249 240 235 234 234 233 232 229 230
321 321 329 333 336 338 336 335 333 332 333 335 336 338 338 339 340 340 342 343 343 343 341 339 336 333 329 323 318 313 302 289 275 264 252 243 238 238 237 236 233 232 233
Height
5877 5876 5876 5876 5876 5875 5875 5875 5874 5873 5872 5872 5871 5870 5870 5869 5868 5868 5867 5867 5867 5867 5866 5866 5866 5866 5866 5866 5866 5867 5867 5867 5868 5868 5868 5868 5868 5869 5869 5869 5870 5870 5870
5876 5876 5876 5875 5875 5875 5874 5874 5873 5872 5872 5871 5870 5869 5869 5868 5867 5866 5866 5865 5865 5864 5864 5864 5864 5864 5864 5864 5864 5865 5865 5865 5866 5866 5867 5867 5867 5868 5868 5869 5869 5869 5870
5875 5875 5875 5875 5874 5874 5874 5873 5873 5872 5871 5870 5869 5868 5867 5866 5866 5865 5864 5863 5863 5862 5862 5862 5862 5862 5862 5862 5862 5862 5863 5863 5864 5865 5865 5866 5866 5867 5867 5868 5868 5869 5869
5875 5875 5874 5874 5874 5873 5873 5873 5872 5871 5870 5869 5868 5867 5866 5865 5865 5864 5863 5862 5861 5860 5860 5860 5859 5859 5859 5859 5859 5860 5860 5861 5862 5863 5863 5864 5865 5865 5866 5867 5868 5869 5869
5874 5874 5874 5873 5873 5873 5872 5872 5871 5870 5869 5869 5868 5867 5866 5865 5864 5863 5862 5860 5859 5858 5858 5857 5857 5857 5857 5857 5857 5857 5858 5858 5859 5860 5861 5863 5863 5864 5865 5866 5867 5868 5869
5874 5873 5873 5873 5872 5872 5872 5871 5870 5869 5869 5868 5867 5866 5864 5863 5862 5861 5860 5859 5857 5856 5856 5855 5854 5854 5854 5854 5854 5855 5855 5856 5857 5858 5859 5861 5861 5863 5864 5865 5866 5867 5868
5873 5873 5873 5872 5872 5871 5871 5870 5870 5869 5868 5867 5866 5865 5863 5862 5861 5859 5858 5857 5855 5854 5854 5853 5852 5851 5851 5851 5851 5852 5852 5853 5854 5856 5857 5858 5859 5861 5862 5863 5865 5866 5867
5873 5872 5872 5872 5871 5871 5870 5869 5869 5868 5867 5866 5865 5863 5862 5861 5859 5858 5856 5855 5853 5852 5851 5850 5849 5849 5849 5849 5849 5849 5850 5851 5852 5853 5855 5856 5857 5859 5860 5862 5864 5865 5867
5872 5872 5871 5871 5870 5870 5869 5869 5868 5867 5866 5865 5863 5862 5860 5859 5857 5856 5854 5853 5851 5850 5849 5848 5847 5846 5846 5846 5846 5847 5847 5848 5849 5850 5852 5853 5855 5857 5858 5860 5862 5864 5866
5871 5871 5871 5870 5870 5869 5868 5868 5867 5866 5865 5863 5862 5860 5859 5857 5855 5854 5852 5850 5849 5848 5847 5846 5845 5844 5843 5843 5843 5844 5844 5845 5846 5848 5849 5851 5853 5854 5856 5859 5861 5863 5865
5870 5870 5870 5869 5869 5869 5868 5867 5866 5865 5863 5862 5860 5859 5857 5855 5854 5852 5850 5848 5847 5845 5844 5843 5842 5841 5840 5840 5840 5841 5841 5842 5843 5845 5847 5848 5850 5852 5855 5857 5859 5861 5864
5870 5869 5869 5868 5868 5867 5867 5866 5865 5864 5862 5861 5859 5857 5855 5854 5852 5850 5848 5846 5844 5843 5841 5840 5839 5838 5837 5837 5837 5837 5838 5839 5840 5842 5844 5845 5848 5850 5852 5855 5857 5860 5862
5869 5868 5868 5867 5866 5866 5865 5864 5863 5862 5861 5859 5857 5855 5854 5852 5850 5848 5846 5844 5842 5840 5839 5837 5836 5835 5834 5834 5834 5834 5835 5836 5837 5839 5840 5843 5845 5847 5850 5853 5855 5858 5860
5867 5867 5866 5866 5865 5865 5864 5863 5862 5861 5859 5857 5856 5854 5852 5850 5848 5846 5844 5842 5840 5838 5836 5834 5833 5832 5831 5831 5830 5831 5831 5832 5834 5836 5838 5840 5842 5844 5847 5850 5853 5856 5859
5866 5865 5865 5864 5864 5864 5863 5862 5861 5859 5858 5856 5854 5852 5850 5848 5846 5844 5842 5839 5837 5835 5833 5831 5830 5829 5828 5827 5827 5827 5828 5829 5830 5832 5834 5836 5839 5842 5845 5848 5851 5854 5857
5864 5864 5864 5863 5863 5862 5862 5861 5859 5858 5856 5855 5853 5851 5849 5846 5844 5842 5839 5837 5835 5832 5830 5828 5827 5825 5824 5824 5823 5823 5824 5825 5827 5829 5831 5833 5836 5839 5842 5845 5848 5851 5854
5862 5862 5862 5861 5861 5861 5860 5859 5858 5857 5855 5854 5851 5849 5847 5845 5843 5840 5837 5835 5832 5830 5828 5825 5824 5822 5821 5821 5820 5820 5821 5822 5824 5826 5828 5830 5833 5836 5839 5842 5845 5848 5852
5861 5861 5861 5860 5860 5860 5859 5858 5857 5856 5854 5853 5850 5848 5846 5844 5841 5838 5835 5833 5830 5828 5825 5823 5821 5820 5818 5818 5817 5817 5818 5819 5821 5823 5825 5827 5830 5833 5836 5839 5842 5845 5849
5860 5860 5859 5859 5859 5858 5858 5857 5856 5854 5853 5851 5849 5847 5845 5842 5839 5837 5834 5831 5828 5826 5823 5821 5819 5817 5816 5815 5814 5814 5815 5816 5818 5819 5822 5824 5827 5829 5832 5835 5839 5842 5846
5859 5858 5858 5857 5857 5857 5856 5855 5854 5853 5852 5850 5848 5846 5844 5841 5838 5835 5832 5829 5827 5824 5821 5819 5817 5815 5814 5813 5812 5812 5812 5813 5814 5816 5818 5821 5823 5826 5829 5832 5835 5839 5842
5857 5857 5856 5856 5856 5855 5855 5854 5853 5852 5851 5849 5847 5845 5842 5840 5837 5834 5831 5828 5826 5823 5820 5817 5815 5813 5812 5811 5810 5810 5810 5810 5811 5813 5815 5818 5820 5823 5826 5829 5832 5835 5838
5856 5856 5855 5854 5854 5854 5853 5853 5852 5851 5850 5848 5846 5844 5841 5839 5836 5833 5831 5827 5824 5821 5819 5816 5814 5812 5810 5809 5808 5807 5808 5809 5809 5810 5812 5815 5817 5820 5823 5825 5828 5831 5835
5855 5854 5854 5854 5853 5853 5852 5851 5850 5850 5848 5847 5845 5843 5840 5838 5835 5832 5829 5826 5823 5820 5817 5815 5812 5810 5808 5807 5806 5806 5806 5806 5807 5808 5809 5812 5814 5817 5819 5821 5825 5828 5831
5853 5853 5853 5852 5852 5851 5850 5850 5849 5848 5847 5845 5844 5842 5839 5837 5834 5831 5828 5825 5822 5819 5816 5813 5811 5809 5807 5806 5804 5804 5804 5804 5805 5806 5807 5809 5811 5814 5816 5819 5822 5825 5828
5852 5852 5852 5851 5851 5850 5849 5848 5847 5846 5845 5844 5842 5840 5838 5835 5833 5830 5827 5824 5821 5818 5815 5812 5810 5807 5806 5804 5803 5802 5802 5802 5802 5804 5805 5806 5808 5811 5813 5816 5818 5821 5824
5851 5851 5850 5850 5849 5849 5848 5847 5846 5845 5843 5842 5840 5838 5836 5834 5831 5829 5826 5823 5820 5816 5814 5811 5808 5806 5804 5803 5802 5801 5800 5800 5801 5801 5802 5804 5805 5808 5810 5812 5815 5818 5820